This demonstration page uses our WeatherBlox Daily Observations layout. Learn more.

Left ArrowRight Arrow

36.17497, -115.13722

Hourly Observations for February 27, 2019

Temp ( °F °C ) Dew Point ( °F °C ) Humidity (%) Winds ( mph kmh ) Pressure ( in mb ) Visibility ( mi km ) Precip ( " mm )
12:53 am 00:53 Clear 49 9.4 34 1.1 56 56 N 3 6 30.07 1018 10 16 0.00 0.00
1:53 am 01:53 Clear 48 8.9 34 1.1 58 58 NNE 3 6 30.06 1018 10 16 0.00 0.00
2:53 am 02:53 Clear 47 8.3 34 1.1 61 61 NW 5 7 30.04 1017 10 16 0.00 0.00
3:53 am 03:53 Clear 46 7.8 34 1.1 63 63 Calm 30.04 1017 10 16 0.00 0.00
4:53 am 04:53 Clear 46 7.8 33 0.6 61 61 ENE 5 7 30.04 1017 10 16 0.00 0.00
5:53 am 05:53 Clear 45 7.2 33 0.6 63 63 Calm 30.06 1018 10 16 0.00 0.00
6:53 am 06:53 Sunny 47 8.3 34 1.1 61 61 NNE 5 7 30.07 1018 10 16 0.00 0.00
7:53 am 07:53 Sunny 50 10 34 1.1 54 54 Calm 30.10 1019 10 16 0.00 0.00
8:53 am 08:53 Sunny 54 12.2 32 0 43 43 E 9 15 30.10 1019 10 16 0.00 0.00
9:53 am 09:53 Sunny 56 13.3 33 0.6 42 42 SE 6 9 30.09 1019 10 16 0.00 0.00
10:53 am 10:53 Sunny 61 16.1 31 -0.6 32 32 NE 7 11 30.08 1019 10 16 0.00 0.00
11:53 am 11:53 Sunny 64 17.8 31 -0.6 29 29 ENE 6 9 30.06 1018 10 16 0.00 0.00
12:53 pm 12:53 Partly Cloudy 67 19.4 29 -1.7 24 24 SE 6 9 30.03 1017 10 16 0.00 0.00
1:53 pm 13:53 Sunny 70 21.1 26 -3.3 19 19 S 10 17 29.99 1016 10 16 0.00 0.00
2:53 pm 14:53 Sunny 71 21.7 28 -2.2 20 20 SSE 13 20 29.98 1015 10 16 0.00 0.00
3:53 pm 15:53 Sunny 71 21.7 30 -1.1 22 22 S 16 26 29.97 1015 10 16 0.00 0.00
4:53 pm 16:53 Sunny 70 21.1 31 -0.6 23 23 SSW 9 15 29.98 1015 10 16 0.00 0.00
5:53 pm 17:53 Clear 67 19.4 30 -1.1 25 25 SW 7 11 29.99 1016 10 16 0.00 0.00
6:53 pm 18:53 Clear 66 18.9 31 -0.6 27 27 SW 13 20 30.00 1016 10 16 0.00 0.00
7:53 pm 19:53 Clear 63 17.2 34 1.1 34 34 SSW 9 15 30.00 1016 10 16 0.00 0.00
8:53 pm 20:53 Clear 62 16.7 37 2.8 40 40 S 13 20 30.00 1016 10 16 0.00 0.00
9:53 pm 21:53 Clear 63 17.2 40 4.4 43 43 SSW 17 28 29.98 1015 10 16 0.00 0.00
10:53 pm 22:53 Clear 62 16.7 42 5.6 48 48 SW 21 33 29.98 1015 10 16 0.00 0.00
11:53 pm 23:53 Clear 61 16.1 42 5.6 50 50 SSW 20 31 29.98 1015 10 16 0.00 0.00

Powered by AerisWeather